Temp
2 2 2 1 1 1 1 1 1 1 0 0 0 -0 -0 -1 -1 -1 -1 -2 -2 -2 -3 -3 -3 -4 -4 -4 -5 -5 -5 -5 -6 -6 -6 -6 -6 -7 -7 -7 -8 -8 -8 -8 -9 -9 -9 -9 -10 -10 -10 -10 -10 -10 -10 -10 -10 -10 -10 -10 -10 -10 -10 -10 -10 -10 -10 -10 -10
2 2 2 1 1 1 1 1 1 1 0 0 0 -0 -0 -1 -1 -1 -1 -2 -2 -2 -3 -3 -3 -4 -4 -4 -5 -5 -5 -5 -6 -6 -6 -6 -6 -7 -7 -7 -7 -8 -8 -8 -8 -9 -9 -9 -9 -10 -10 -10 -10 -9 -9 -10 -10 -10 -10 -10 -10 -10 -10 -10 -10 -10 -10 -10 -10
2 2 2 1 1 1 1 1 1 1 0 0 -0 -0 -0 -1 -1 -1 -1 -2 -2 -2 -3 -3 -3 -4 -4 -4 -5 -5 -5 -5 -6 -6 -6 -6 -6 -7 -7 -7 -7 -8 -8 -8 -8 -8 -9 -9 -9 -9 -9 -9 -9 -9 -9 -9 -10 -10 -10 -10 -10 -10 -10 -10 -10 -10 -10 -10 -10
2 2 2 2 1 1 1 1 1 0 0 0 -0 -0 -0 -1 -1 -1 -1 -2 -2 -2 -3 -3 -3 -4 -4 -4 -5 -5 -5 -6 -6 -6 -6 -6 -6 -7 -7 -7 -7 -7 -8 -8 -8 -8 -9 -9 -9 -9 -9 -9 -9 -9 -9 -9 -9 -10 -10 -10 -10 -10 -10 -10 -10 -10 -10 -10 -10
2 2 2 2 1 1 1 1 1 0 0 0 -0 -0 -0 -1 -1 -1 -1 -2 -2 -3 -3 -3 -3 -4 -4 -4 -5 -5 -5 -6 -6 -6 -6 -6 -6 -7 -7 -7 -7 -7 -7 -8 -8 -8 -8 -9 -9 -8 -8 -8 -8 -8 -8 -9 -9 -9 -9 -9 -10 -10 -10 -10 -10 -10 -10 -10 -10
2 2 2 1 1 1 1 1 1 0 0 0 -0 -0 -1 -1 -1 -1 -2 -2 -2 -3 -3 -3 -4 -4 -4 -4 -5 -5 -5 -5 -6 -6 -6 -6 -6 -7 -7 -7 -7 -7 -7 -8 -8 -8 -8 -8 -8 -8 -8 -8 -8 -8 -8 -9 -9 -9 -9 -9 -9 -9 -10 -10 -10 -10 -10 -10 -10
2 2 2 1 1 1 1 1 1 0 0 0 -0 -0 -1 -1 -1 -1 -2 -2 -2 -3 -3 -3 -4 -4 -4 -4 -5 -5 -5 -5 -6 -6 -6 -6 -6 -7 -7 -7 -7 -7 -7 -7 -8 -8 -8 -8 -8 -8 -8 -8 -8 -8 -8 -9 -9 -9 -9 -9 -9 -9 -9 -9 -10 -10 -10 -10 -10
2 2 2 1 1 1 1 1 1 0 0 0 -0 -0 -1 -1 -1 -1 -2 -2 -2 -3 -3 -3 -4 -4 -4 -4 -5 -5 -5 -5 -6 -6 -6 -6 -6 -7 -7 -7 -7 -7 -7 -7 -8 -8 -8 -8 -8 -8 -8 -8 -8 -8 -8 -8 -9 -9 -9 -9 -9 -9 -9 -9 -9 -9 -9 -9 -10
2 2 2 1 1 1 1 1 1 0 0 0 -0 -0 -1 -1 -1 -1 -2 -2 -3 -3 -3 -3 -4 -4 -4 -4 -5 -5 -5 -5 -6 -6 -6 -6 -6 -7 -7 -7 -7 -7 -7 -7 -8 -8 -8 -8 -8 -8 -8 -8 -8 -8 -8 -8 -8 -9 -9 -9 -9 -9 -9 -9 -9 -9 -9 -9 -9
2 2 2 1 1 1 1 1 1 0 0 0 -0 -0 -1 -1 -1 -2 -2 -2 -3 -3 -3 -3 -4 -4 -4 -4 -5 -5 -5 -6 -6 -6 -6 -6 -6 -7 -7 -7 -7 -7 -7 -7 -8 -8 -8 -8 -8 -8 -8 -8 -8 -8 -8 -8 -8 -8 -9 -9 -8 -8 -8 -8 -8 -9 -9 -9 -9
2 2 2 1 1 1 1 1 1 0 0 0 -0 -0 -1 -1 -1 -2 -2 -2 -2 -3 -3 -3 -4 -4 -4 -4 -5 -5 -5 -6 -6 -6 -6 -6 -6 -7 -7 -7 -7 -7 -7 -7 -8 -8 -8 -8 -8 -8 -8 -8 -8 -8 -8 -8 -8 -8 -8 -8 -8 -8 -8 -8 -8 -9 -9 -9 -9
2 2 1 1 1 1 1 1 0 0 0 0 -0 -0 -1 -1 -1 -2 -2 -2 -2 -3 -3 -3 -4 -4 -4 -4 -5 -5 -5 -6 -6 -6 -6 -6 -6 -7 -7 -7 -7 -7 -7 -7 -8 -8 -8 -8 -8 -8 -8 -8 -8 -8 -8 -8 -8 -8 -8 -8 -8 -8 -8 -8 -8 -8 -9 -9 -9
2 2 1 1 1 1 1 1 0 0 0 0 -0 -0 -1 -1 -2 -2 -2 -2 -2 -3 -3 -3 -4 -4 -4 -4 -5 -5 -5 -6 -6 -6 -6 -6 -6 -7 -7 -7 -7 -7 -7 -7 -7 -8 -8 -8 -8 -8 -8 -8 -8 -8 -8 -8 -8 -8 -8 -8 -8 -8 -8 -8 -8 -8 -9 -9 -9
2 1 1 1 1 1 1 1 1 0 0 0 -0 -0 -1 -1 -2 -2 -2 -2 -2 -3 -3 -3 -4 -4 -4 -4 -5 -5 -5 -6 -6 -6 -6 -6 -6 -7 -7 -7 -7 -7 -7 -7 -7 -8 -8 -8 -8 -8 -8 -8 -8 -8 -8 -8 -8 -8 -8 -8 -8 -8 -8 -8 -8 -9 -9 -9 -9
2 1 1 1 1 1 1 1 1 0 0 0 -0 -1 -1 -1 -2 -2 -2 -2 -2 -3 -3 -3 -3 -4 -4 -4 -5 -5 -5 -5 -6 -6 -6 -6 -6 -7 -7 -7 -7 -7 -7 -7 -7 -7 -8 -8 -8 -8 -8 -8 -8 -8 -8 -8 -8 -8 -8 -8 -8 -8 -9 -9 -9 -9 -9 -9 -9
2 1 1 1 1 1 1 1 1 0 0 -0 -0 -1 -1 -1 -2 -2 -2 -2 -2 -3 -3 -3 -3 -4 -4 -4 -5 -5 -5 -5 -6 -6 -6 -6 -6 -7 -7 -7 -7 -7 -7 -7 -7 -7 -7 -8 -8 -8 -8 -8 -8 -8 -8 -8 -8 -8 -8 -8 -8 -8 -9 -9 -9 -9 -9 -9 -9
2 1 1 1 1 1 1 1 0 0 0 -0 -0 -1 -1 -1 -2 -2 -2 -2 -2 -3 -3 -3 -3 -4 -4 -4 -5 -5 -5 -5 -6 -6 -6 -6 -6 -6 -7 -7 -7 -7 -7 -7 -7 -7 -7 -7 -8 -8 -8 -8 -8 -8 -8 -8 -7 -7 -8 -8 -8 -8 -8 -8 -9 -9 -9 -9 -9
2 2 1 1 1 1 1 1 0 0 0 -0 -0 -1 -1 -1 -1 -2 -2 -2 -2 -2 -3 -3 -3 -3 -4 -4 -5 -5 -5 -5 -5 -6 -6 -6 -6 -6 -6 -7 -7 -7 -7 -7 -7 -7 -7 -7 -8 -8 -8 -8 -8 -8 -7 -7 -7 -7 -7 -8 -8 -8 -8 -8 -9 -9 -9 -9 -9
2 2 1 1 1 1 1 0 0 0 0 -0 -0 -1 -1 -1 -1 -2 -2 -2 -2 -2 -3 -3 -3 -3 -4 -4 -4 -5 -5 -5 -5 -6 -6 -6 -6 -6 -6 -6 -6 -7 -7 -7 -7 -7 -7 -7 -7 -8 -8 -8 -8 -7 -7 -7 -7 -7 -7 -8 -8 -8 -8 -8 -8 -8 -8 -9 -9
2 2 2 1 1 1 1 0 0 0 -0 -0 -0 -1 -1 -1 -1 -2 -2 -2 -2 -3 -3 -3 -3 -3 -4 -4 -4 -5 -5 -5 -5 -5 -6 -6 -6 -6 -6 -6 -6 -6 -6 -7 -7 -7 -7 -7 -7 -8 -8 -8 -7 -7 -7 -7 -7 -7 -7 -8 -8 -8 -8 -8 -8 -8 -8 -8 -9
2 2 2 1 1 1 0 0 0 -0 -0 -0 -0 -0 -1 -1 -1 -2 -2 -2 -2 -3 -3 -3 -3 -3 -4 -4 -4 -4 -5 -5 -5 -5 -6 -6 -6 -6 -6 -6 -6 -6 -6 -7 -7 -7 -7 -7 -7 -7 -8 -7 -7 -7 -7 -7 -7 -7 -8 -8 -8 -8 -8 -8 -8 -8 -8 -8 -9
2 2 2 1 1 1 0 0 -0 -0 0 -0 -0 -0 -1 -1 -1 -2 -2 -2 -2 -3 -3 -3 -3 -3 -3 -4 -4 -4 -4 -5 -5 -5 -5 -6 -6 -6 -6 -6 -6 -6 -6 -6 -7 -7 -7 -7 -7 -7 -7 -7 -7 -7 -7 -7 -7 -8 -8 -8 -8 -8 -8 -8 -8 -8 -8 -8 -9
2 2 1 1 1 0 0 0 -0 0 0 0 -0 -0 -1 -1 -1 -2 -2 -2 -2 -2 -3 -3 -3 -3 -3 -4 -4 -4 -4 -5 -5 -5 -5 -6 -6 -6 -6 -6 -6 -6 -6 -6 -6 -7 -7 -7 -7 -7 -7 -7 -7 -7 -7 -7 -8 -7 -8 -8 -8 -8 -8 -8 -8 -8 -8 -9 -9
2 1 1 1 0 0 0 0 0 0 0 0 -0 -1 -1 -1 -1 -2 -2 -2 -2 -2 -3 -3 -3 -3 -3 -4 -4 -4 -4 -4 -5 -5 -5 -5 -6 -6 -6 -6 -6 -6 -6 -6 -6 -7 -7 -7 -7 -8 -8 -8 -8 -8 -8 -8 -7 -7 -8 -8 -8 -8 -8 -8 -8 -8 -8 -8 -9
2 1 1 1 0 0 0 0 0 0 0 0 -0 -1 -1 -1 -1 -2 -2 -2 -2 -2 -3 -3 -3 -3 -3 -3 -4 -4 -4 -4 -4 -5 -5 -5 -6 -6 -6 -6 -6 -6 -6 -6 -6 -7 -7 -7 -8 -8 -9 -8 -8 -8 -7 -7 -7 -7 -8 -8 -8 -8 -8 -8 -8 -8 -8 -8 -9
1 1 1 1 0 0 0 0 0 0 0 -0 -0 -1 -1 -1 -1 -2 -2 -2 -2 -2 -3 -3 -3 -3 -3 -3 -4 -4 -4 -4 -4 -5 -5 -5 -5 -5 -6 -5 -5 -5 -6 -6 -6 -6 -7 -7 -8 -8 -9 -8 -8 -7 -7 -6 -7 -7 -7 -7 -7 -7 -8 -8 -8 -8 -8 -8 -9
1 1 1 1 0 0 0 0 0 0 0 -0 -0 -1 -1 -1 -1 -2 -2 -2 -2 -2 -3 -3 -3 -3 -3 -3 -3 -4 -4 -4 -4 -5 -5 -5 -5 -5 -5 -5 -5 -5 -5 -6 -6 -6 -7 -7 -7 -8 -8 -8 -8 -7 -6 -6 -7 -7 -7 -7 -7 -7 -8 -8 -8 -8 -8 -8 -9
1 1 1 1 0 0 0 0 0 0 0 -0 -0 -1 -1 -1 -1 -1 -2 -2 -2 -2 -3 -3 -3 -3 -3 -3 -3 -3 -4 -4 -4 -5 -5 -5 -5 -5 -5 -5 -5 -5 -5 -6 -6 -6 -7 -7 -7 -7 -8 -8 -7 -6 -6 -7 -7 -7 -7 -7 -7 -7 -8 -8 -8 -8 -8 -8 -8
1 1 1 1 0 0 0 0 0 0 0 -0 -0 -1 -1 -1 -1 -1 -1 -2 -2 -2 -3 -3 -3 -3 -3 -3 -3 -3 -4 -4 -4 -5 -5 -5 -5 -5 -5 -5 -5 -5 -5 -6 -6 -6 -7 -7 -7 -7 -8 -7 -7 -6 -6 -7 -7 -7 -7 -7 -7 -7 -8 -8 -8 -8 -8 -8 -9
1 1 1 1 1 0 0 0 0 0 -0 -0 -1 -1 -1 -1 -1 -1 -1 -2 -2 -2 -3 -3 -3 -3 -3 -3 -3 -3 -4 -4 -4 -4 -5 -5 -5 -5 -5 -5 -5 -5 -5 -6 -6 -6 -7 -7 -7 -7 -8 -7 -7 -6 -6 -7 -7 -7 -7 -7 -7 -7 -8 -8 -8 -8 -8 -8 -9
1 1 1 1 0 0 0 0 0 0 -0 -0 -1 -1 -1 -1 -1 -1 -1 -2 -2 -2 -3 -3 -3 -3 -3 -3 -3 -3 -3 -4 -4 -4 -4 -5 -5 -5 -5 -5 -5 -5 -5 -6 -6 -6 -6 -7 -7 -7 -8 -7 -7 -7 -7 -7 -7 -7 -7 -7 -7 -7 -7 -8 -8 -8 -8 -8 -9
1 1 1 0 0 0 0 0 0 -0 -0 -1 -1 -1 -1 -1 -1 -1 -1 -2 -2 -2 -2 -2 -3 -3 -3 -3 -3 -3 -3 -4 -4 -4 -4 -4 -4 -4 -4 -4 -5 -5 -5 -6 -6 -6 -6 -7 -7 -7 -8 -7 -7 -7 -7 -7 -7 -7 -7 -7 -7 -7 -7 -7 -8 -8 -8 -8 -9
1 1 1 0 0 0 0 0 -0 -0 -0 -1 -1 -1 -1 -1 -1 -1 -1 -2 -2 -2 -2 -2 -2 -3 -3 -3 -3 -3 -3 -3 -4 -4 -4 -4 -4 -4 -4 -4 -5 -5 -5 -6 -6 -6 -6 -6 -7 -7 -7 -7 -7 -7 -7 -7 -7 -7 -8 -8 -7 -7 -7 -7 -8 -8 -8 -8 -9
1 1 1 1 1 0 0 0 -0 -0 -0 -0 -0 -0 -0 -1 -1 -1 -1 -2 -2 -2 -2 -2 -2 -2 -3 -3 -3 -3 -3 -3 -4 -4 -4 -4 -4 -4 -4 -4 -5 -5 -5 -6 -6 -6 -6 -6 -7 -7 -7 -7 -7 -7 -7 -7 -7 -8 -8 -8 -7 -7 -7 -7 -8 -8 -8 -8 -9
1 1 1 1 1 0 0 0 -0 -0 -0 -0 -0 -0 -0 -1 -1 -1 -1 -2 -2 -2 -2 -2 -2 -2 -3 -3 -3 -3 -3 -3 -3 -4 -4 -4 -4 -4 -4 -4 -4 -5 -5 -6 -6 -6 -6 -6 -6 -7 -7 -7 -7 -7 -7 -7 -7 -8 -8 -8 -7 -7 -7 -7 -8 -8 -8 -8 -9
1 1 1 1 1 0 0 0 -0 -0 -0 -0 -0 -0 -0 -0 -1 -1 -1 -2 -2 -2 -2 -2 -2 -2 -3 -3 -3 -3 -3 -3 -3 -3 -4 -4 -4 -4 -4 -4 -4 -5 -5 -6 -6 -6 -6 -6 -6 -7 -7 -7 -7 -7 -7 -7 -8 -8 -8 -8 -7 -7 -7 -7 -8 -8 -8 -9 -9
1 1 1 1 1 0 0 0 -0 -0 -0 -0 0 -0 -0 -0 -1 -1 -1 -2 -2 -2 -2 -2 -2 -2 -3 -3 -3 -3 -3 -3 -3 -3 -3 -4 -4 -4 -4 -4 -4 -5 -5 -6 -6 -6 -6 -6 -6 -6 -7 -7 -7 -7 -7 -7 -7 -8 -8 -8 -7 -7 -7 -8 -8 -8 -8 -9 -9
1 1 1 1 1 1 0 0 -0 -0 0 0 0 -0 -0 -1 -1 -1 -1 -2 -2 -2 -2 -2 -2 -2 -3 -3 -3 -3 -3 -3 -3 -3 -3 -3 -4 -4 -4 -4 -4 -4 -5 -6 -6 -6 -6 -6 -6 -6 -7 -7 -7 -7 -7 -7 -7 -8 -8 -8 -7 -7 -8 -8 -8 -8 -8 -8 -9
1 1 1 1 1 0 0 0 0 0 0 0 0 -0 -1 -1 -1 -1 -1 -1 -2 -2 -2 -2 -2 -2 -3 -3 -3 -3 -3 -3 -3 -3 -3 -3 -4 -4 -4 -4 -4 -4 -5 -5 -6 -6 -6 -6 -6 -6 -7 -7 -7 -7 -7 -7 -7 -8 -8 -8 -8 -8 -8 -8 -8 -8 -8 -8 -8
1 1 1 1 1 0 0 0 0 0 0 0 -0 -0 -1 -1 -1 -1 -1 -2 -2 -2 -2 -2 -2 -2 -3 -3 -3 -3 -3 -3 -3 -3 -3 -3 -4 -4 -4 -4 -4 -4 -5 -5 -6 -6 -7 -7 -6 -6 -7 -7 -7 -7 -7 -7 -8 -8 -8 -8 -8 -8 -8 -8 -8 -8 -8 -8 -8
1 1 1 1 1 0 0 0 0 0 -0 -0 -0 -0 -1 -1 -1 -1 -1 -1 -2 -2 -2 -2 -2 -2 -3 -3 -3 -3 -3 -3 -3 -3 -3 -3 -4 -4 -4 -4 -4 -4 -5 -5 -6 -6 -7 -7 -7 -7 -7 -7 -7 -7 -7 -7 -8 -8 -8 -8 -8 -9 -9 -8 -8 -8 -8 -8 -8
Height
1517 1517 1517 1517 1517 1517 1516 1516 1516 1516 1515 1515 1514 1513 1513 1513 1512 1511 1511 1510 1509 1508 1508 1507 1506 1505 1504 1503 1503 1502 1501 1500 1499 1498 1497 1496 1495 1493 1493 1491 1490 1489 1488 1487 1486 1485 1484 1483 1482 1480 1479 1478 1476 1475 1474 1473 1473 1471 1470 1469 1468 1467 1466 1464 1463 1462 1461 1459 1458
1515 1515 1515 1515 1515 1514 1514 1514 1514 1514 1513 1513 1513 1512 1511 1511 1510 1510 1509 1508 1508 1507 1506 1505 1504 1503 1503 1502 1501 1500 1499 1498 1497 1496 1495 1494 1493 1492 1491 1490 1489 1488 1487 1485 1484 1483 1482 1481 1479 1478 1477 1475 1474 1473 1472 1471 1471 1469 1468 1467 1466 1465 1463 1462 1460 1459 1458 1457 1455
1513 1513 1513 1513 1513 1513 1513 1513 1512 1512 1512 1511 1511 1510 1510 1509 1508 1508 1507 1507 1506 1505 1504 1503 1503 1502 1501 1500 1499 1498 1498 1497 1496 1494 1493 1493 1492 1491 1489 1488 1487 1486 1485 1484 1483 1482 1480 1479 1478 1476 1475 1473 1473 1471 1470 1469 1469 1468 1466 1464 1463 1462 1461 1459 1458 1456 1455 1454 1453
1511 1511 1511 1511 1511 1511 1511 1511 1510 1510 1510 1509 1509 1508 1508 1507 1507 1506 1506 1505 1504 1503 1503 1502 1501 1500 1499 1498 1498 1497 1496 1495 1494 1493 1492 1491 1490 1489 1488 1487 1486 1484 1483 1482 1481 1480 1478 1477 1476 1475 1473 1472 1471 1469 1468 1467 1467 1465 1464 1463 1461 1460 1458 1457 1455 1454 1453 1451 1450
1509 1509 1509 1509 1509 1509 1509 1509 1508 1508 1508 1508 1507 1507 1506 1506 1505 1504 1504 1503 1503 1502 1501 1500 1499 1498 1498 1497 1496 1495 1494 1493 1492 1491 1490 1489 1488 1487 1486 1485 1484 1483 1482 1481 1479 1478 1477 1476 1474 1473 1472 1470 1469 1468 1467 1466 1464 1463 1462 1460 1459 1458 1456 1454 1453 1452 1451 1449 1448
1507 1507 1507 1507 1507 1507 1507 1507 1507 1506 1506 1506 1505 1505 1504 1504 1503 1503 1502 1501 1501 1500 1499 1498 1498 1497 1496 1495 1494 1493 1493 1492 1491 1490 1488 1488 1487 1486 1485 1484 1483 1482 1480 1479 1478 1477 1475 1474 1472 1471 1470 1469 1467 1466 1465 1464 1463 1461 1459 1458 1457 1456 1454 1453 1451 1450 1449 1448 1446
1505 1505 1505 1505 1505 1505 1505 1505 1505 1504 1504 1504 1503 1503 1502 1502 1501 1501 1500 1499 1499 1498 1498 1497 1496 1495 1494 1493 1492 1492 1491 1490 1489 1488 1487 1486 1485 1484 1483 1482 1481 1480 1479 1478 1476 1475 1473 1472 1471 1469 1468 1467 1466 1464 1463 1463 1461 1459 1458 1456 1455 1454 1453 1451 1450 1448 1447 1446 1444
1503 1503 1503 1503 1503 1503 1503 1503 1503 1503 1502 1502 1501 1501 1501 1500 1499 1499 1498 1498 1497 1497 1496 1495 1494 1493 1493 1492 1491 1490 1489 1488 1487 1487 1486 1485 1483 1483 1482 1481 1479 1478 1477 1476 1475 1473 1472 1471 1469 1468 1467 1465 1464 1463 1462 1461 1459 1458 1456 1454 1453 1452 1451 1450 1448 1447 1445 1444 1442
1500 1500 1501 1501 1501 1501 1501 1501 1501 1500 1500 1500 1500 1499 1499 1498 1498 1497 1497 1496 1495 1495 1494 1493 1493 1492 1491 1490 1489 1488 1487 1486 1486 1485 1484 1483 1482 1481 1480 1479 1478 1477 1476 1474 1473 1472 1470 1469 1468 1466 1465 1464 1463 1461 1460 1459 1458 1456 1454 1453 1452 1450 1449 1448 1447 1445 1443 1442 1440
1498 1498 1498 1499 1499 1499 1499 1499 1499 1498 1498 1498 1498 1497 1497 1496 1496 1495 1495 1494 1494 1493 1493 1492 1491 1490 1489 1488 1487 1486 1486 1485 1484 1483 1483 1482 1481 1480 1478 1477 1476 1475 1474 1473 1471 1470 1468 1467 1466 1465 1464 1463 1461 1460 1458 1458 1456 1454 1453 1451 1450 1448 1447 1446 1445 1443 1442 1440 1438
1496 1497 1497 1497 1497 1497 1497 1497 1497 1497 1496 1496 1496 1495 1495 1494 1494 1493 1493 1493 1492 1491 1491 1490 1489 1488 1487 1486 1485 1485 1484 1483 1482 1482 1481 1480 1479 1478 1477 1476 1475 1473 1472 1471 1470 1468 1467 1466 1464 1463 1462 1461 1460 1458 1457 1456 1454 1453 1451 1450 1448 1447 1445 1444 1443 1442 1440 1438 1436
1494 1494 1495 1495 1495 1495 1495 1495 1494 1494 1494 1494 1494 1493 1493 1493 1492 1492 1491 1491 1490 1490 1489 1488 1487 1486 1486 1485 1484 1483 1482 1482 1481 1480 1479 1478 1478 1477 1475 1474 1473 1472 1471 1469 1468 1467 1465 1464 1463 1461 1460 1459 1458 1457 1455 1454 1453 1451 1450 1448 1447 1446 1444 1443 1441 1440 1438 1436 1434
1492 1492 1493 1493 1493 1493 1493 1493 1493 1493 1492 1492 1492 1492 1491 1491 1490 1490 1489 1489 1488 1488 1487 1487 1486 1485 1484 1483 1482 1481 1481 1480 1479 1478 1478 1477 1476 1475 1474 1473 1472 1470 1469 1468 1467 1465 1464 1463 1461 1460 1458 1458 1456 1455 1454 1453 1451 1449 1448 1447 1445 1444 1443 1441 1439 1438 1436 1434 1432
1490 1490 1490 1490 1490 1490 1490 1490 1490 1490 1490 1490 1490 1489 1489 1489 1488 1488 1488 1487 1487 1486 1485 1485 1484 1483 1482 1481 1480 1480 1479 1478 1478 1477 1476 1475 1474 1473 1472 1471 1470 1469 1468 1466 1465 1464 1463 1461 1460 1458 1457 1456 1455 1453 1453 1451 1450 1448 1446 1445 1443 1442 1441 1439 1438 1436 1434 1432 1429
1488 1488 1488 1488 1488 1488 1488 1488 1488 1488 1488 1488 1488 1488 1487 1487 1487 1486 1486 1485 1485 1484 1483 1483 1482 1481 1481 1480 1479 1478 1478 1477 1476 1475 1474 1473 1473 1472 1470 1469 1468 1467 1466 1465 1464 1463 1461 1460 1458 1457 1456 1454 1453 1452 1451 1450 1448 1447 1445 1443 1442 1440 1439 1438 1436 1434 1432 1429 1427
1485 1485 1485 1486 1486 1486 1486 1486 1486 1486 1486 1486 1486 1486 1485 1485 1485 1484 1484 1483 1483 1482 1482 1481 1480 1480 1479 1478 1478 1477 1476 1475 1474 1474 1473 1472 1471 1470 1469 1468 1467 1466 1464 1463 1462 1461 1460 1458 1457 1456 1454 1453 1451 1450 1449 1448 1447 1445 1443 1442 1440 1439 1437 1436 1434 1432 1430 1427 1425
1483 1483 1483 1483 1483 1483 1484 1484 1484 1484 1484 1484 1484 1484 1483 1483 1483 1483 1482 1482 1481 1480 1480 1479 1479 1478 1477 1477 1476 1475 1474 1473 1473 1472 1471 1470 1469 1468 1467 1466 1465 1464 1463 1462 1460 1459 1458 1457 1456 1454 1453 1451 1450 1448 1447 1446 1444 1443 1442 1440 1438 1437 1435 1434 1432 1430 1427 1425 1423
1480 1480 1481 1481 1481 1481 1482 1482 1482 1482 1482 1482 1482 1482 1482 1481 1481 1481 1480 1480 1479 1479 1478 1478 1477 1476 1476 1475 1474 1474 1473 1472 1471 1470 1469 1468 1468 1466 1465 1464 1463 1463 1461 1460 1459 1458 1456 1455 1454 1453 1451 1450 1448 1447 1446 1444 1443 1441 1440 1438 1436 1435 1433 1432 1430 1427 1425 1422 1420
1478 1478 1478 1478 1479 1479 1480 1480 1480 1480 1480 1480 1480 1480 1480 1479 1479 1479 1478 1478 1478 1477 1476 1476 1475 1475 1474 1473 1473 1472 1471 1470 1469 1469 1468 1467 1466 1465 1464 1463 1462 1461 1460 1458 1457 1456 1455 1453 1452 1451 1450 1448 1447 1446 1444 1443 1441 1439 1438 1436 1434 1433 1431 1429 1427 1425 1423 1420 1418
1476 1476 1476 1477 1477 1478 1478 1478 1478 1478 1478 1478 1478 1478 1478 1478 1477 1477 1477 1476 1476 1475 1474 1474 1473 1473 1473 1472 1471 1470 1470 1469 1468 1467 1466 1465 1464 1463 1462 1461 1460 1459 1458 1457 1456 1454 1453 1452 1450 1449 1448 1447 1445 1444 1442 1441 1438 1437 1435 1433 1432 1431 1429 1427 1425 1423 1421 1418 1417
1473 1473 1474 1474 1475 1475 1476 1476 1476 1476 1476 1476 1476 1476 1476 1476 1475 1475 1475 1474 1474 1473 1473 1472 1472 1471 1471 1470 1469 1469 1468 1467 1466 1465 1464 1463 1463 1462 1461 1459 1458 1458 1457 1455 1454 1453 1452 1450 1449 1448 1446 1445 1443 1442 1440 1438 1436 1434 1433 1432 1430 1429 1427 1425 1423 1421 1419 1417 1415
1471 1472 1472 1473 1473 1473 1474 1474 1474 1474 1474 1474 1474 1474 1474 1474 1473 1473 1473 1473 1472 1472 1471 1470 1470 1469 1469 1468 1468 1467 1467 1466 1465 1464 1463 1462 1461 1460 1459 1458 1457 1456 1455 1454 1453 1451 1450 1448 1448 1446 1445 1443 1441 1439 1438 1435 1433 1431 1431 1430 1428 1427 1425 1423 1421 1419 1418 1416 1415
1469 1470 1470 1471 1471 1472 1472 1472 1472 1472 1472 1472 1472 1472 1472 1472 1472 1472 1471 1471 1470 1470 1469 1469 1468 1468 1467 1467 1466 1465 1465 1464 1463 1463 1461 1460 1459 1458 1457 1456 1455 1454 1453 1452 1451 1449 1448 1447 1445 1444 1443 1441 1439 1437 1435 1433 1431 1431 1431 1429 1427 1425 1423 1422 1420 1419 1417 1415 1414
1467 1468 1468 1468 1469 1469 1470 1470 1470 1470 1470 1470 1470 1470 1470 1470 1470 1470 1469 1469 1469 1468 1468 1467 1467 1466 1466 1465 1464 1464 1463 1462 1461 1461 1460 1459 1458 1457 1456 1455 1454 1453 1452 1451 1449 1448 1447 1445 1443 1442 1441 1439 1438 1436 1434 1433 1433 1432 1430 1428 1426 1424 1423 1421 1420 1418 1416 1414 1413
1464 1465 1466 1466 1467 1467 1467 1468 1468 1468 1468 1468 1468 1468 1468 1468 1468 1468 1468 1468 1467 1467 1466 1466 1465 1465 1464 1463 1463 1462 1461 1460 1459 1458 1458 1457 1456 1455 1454 1453 1452 1451 1450 1449 1448 1447 1446 1445 1443 1442 1440 1439 1437 1435 1433 1433 1433 1431 1429 1427 1426 1424 1422 1420 1418 1417 1415 1413 1411
1462 1463 1463 1463 1464 1465 1465 1465 1465 1466 1466 1466 1466 1466 1466 1466 1466 1466 1466 1466 1465 1465 1465 1464 1463 1463 1463 1462 1461 1461 1460 1459 1458 1457 1456 1455 1454 1453 1453 1452 1451 1450 1449 1448 1447 1446 1445 1444 1443 1442 1440 1438 1436 1434 1433 1433 1432 1429 1428 1426 1424 1423 1420 1418 1417 1415 1413 1411 1410
1459 1460 1460 1461 1462 1462 1462 1463 1463 1464 1464 1464 1464 1464 1465 1465 1464 1464 1464 1464 1464 1463 1463 1463 1462 1461 1461 1460 1459 1459 1458 1457 1456 1455 1454 1453 1453 1452 1451 1450 1449 1448 1447 1446 1445 1444 1443 1442 1441 1441 1439 1438 1436 1435 1434 1432 1430 1428 1427 1425 1423 1421 1419 1417 1415 1413 1411 1410 1408
1456 1457 1458 1458 1459 1459 1460 1461 1461 1462 1462 1462 1463 1463 1463 1463 1463 1462 1462 1463 1462 1462 1462 1461 1460 1460 1459 1458 1458 1457 1456 1456 1455 1454 1453 1452 1451 1450 1449 1448 1447 1447 1446 1445 1444 1443 1442 1441 1440 1439 1438 1437 1435 1434 1433 1430 1429 1427 1426 1424 1422 1420 1418 1416 1413 1412 1410 1408 1407
1454 1455 1456 1456 1456 1457 1458 1458 1459 1459 1460 1460 1461 1461 1461 1461 1460 1460 1461 1461 1461 1460 1460 1459 1459 1458 1458 1457 1456 1456 1455 1454 1453 1452 1451 1450 1449 1448 1447 1446 1446 1445 1444 1444 1443 1441 1440 1439 1438 1438 1437 1436 1435 1434 1432 1429 1428 1426 1424 1422 1420 1418 1416 1414 1413 1411 1409 1407 1405
1452 1452 1453 1453 1454 1455 1456 1456 1457 1458 1458 1458 1458 1458 1458 1458 1458 1458 1459 1459 1459 1458 1458 1458 1457 1457 1456 1455 1455 1454 1453 1453 1452 1451 1450 1449 1448 1447 1446 1445 1444 1443 1443 1442 1441 1440 1439 1438 1437 1436 1436 1435 1434 1432 1430 1428 1426 1424 1423 1421 1419 1417 1415 1413 1412 1410 1408 1406 1404
1449 1450 1451 1451 1452 1453 1453 1454 1455 1455 1456 1456 1456 1456 1456 1456 1456 1457 1457 1457 1457 1457 1457 1456 1455 1455 1454 1454 1453 1452 1452 1451 1450 1449 1448 1447 1446 1445 1444 1443 1443 1442 1441 1441 1440 1438 1438 1437 1436 1435 1434 1434 1433 1431 1428 1427 1425 1423 1421 1419 1418 1416 1414 1413 1411 1408 1407 1404 1403
1447 1448 1448 1449 1450 1451 1452 1453 1453 1453 1453 1454 1454 1454 1454 1454 1454 1455 1455 1455 1455 1455 1455 1454 1453 1453 1453 1452 1452 1451 1450 1449 1448 1448 1447 1445 1444 1443 1442 1442 1441 1440 1440 1439 1438 1437 1436 1435 1434 1434 1433 1433 1431 1429 1427 1425 1423 1422 1420 1418 1417 1415 1413 1412 1410 1408 1406 1403 1401
1444 1445 1446 1447 1448 1449 1450 1450 1451 1451 1451 1452 1452 1452 1452 1452 1453 1453 1453 1453 1453 1453 1453 1452 1452 1452 1451 1451 1450 1449 1449 1448 1447 1446 1445 1444 1443 1442 1441 1440 1439 1439 1438 1438 1437 1436 1435 1434 1433 1432 1432 1431 1430 1428 1426 1424 1422 1420 1419 1417 1416 1414 1413 1411 1409 1407 1405 1402 1400
1442 1443 1444 1445 1446 1447 1448 1448 1449 1449 1449 1450 1450 1450 1450 1451 1451 1451 1451 1451 1451 1451 1451 1450 1450 1450 1449 1449 1448 1448 1447 1446 1445 1444 1443 1442 1441 1440 1439 1438 1438 1438 1437 1436 1435 1434 1433 1433 1432 1431 1431 1430 1428 1426 1424 1422 1421 1419 1418 1416 1415 1413 1412 1410 1408 1406 1404 1401 1399
1439 1440 1441 1443 1444 1445 1446 1446 1447 1447 1448 1448 1448 1448 1448 1449 1449 1449 1450 1450 1450 1449 1449 1448 1448 1448 1448 1447 1447 1446 1445 1444 1443 1443 1442 1441 1439 1438 1438 1437 1436 1436 1436 1435 1434 1433 1432 1431 1430 1430 1429 1428 1427 1425 1423 1421 1419 1418 1416 1415 1413 1412 1411 1409 1407 1405 1403 1401 1398
1437 1438 1439 1440 1442 1443 1443 1444 1445 1445 1446 1446 1446 1447 1447 1447 1448 1448 1448 1448 1448 1447 1447 1447 1447 1446 1446 1446 1445 1444 1444 1443 1442 1441 1440 1439 1438 1437 1436 1435 1435 1434 1434 1433 1433 1432 1431 1430 1429 1428 1428 1427 1425 1423 1422 1420 1418 1417 1415 1413 1412 1411 1409 1408 1406 1404 1402 1400 1398
1434 1435 1437 1438 1439 1440 1441 1442 1443 1443 1443 1444 1444 1445 1446 1446 1446 1446 1446 1446 1446 1445 1445 1445 1445 1444 1444 1444 1443 1443 1442 1441 1440 1439 1438 1438 1436 1435 1434 1433 1433 1433 1433 1432 1431 1430 1430 1429 1428 1427 1426 1426 1424 1422 1420 1418 1417 1415 1414 1413 1411 1410 1408 1407 1405 1403 1402 1399 1397
1432 1433 1434 1436 1437 1438 1439 1440 1441 1441 1442 1442 1443 1444 1444 1444 1444 1445 1445 1444 1444 1443 1443 1443 1443 1443 1443 1442 1442 1441 1440 1440 1439 1438 1437 1436 1435 1433 1433 1432 1431 1431 1431 1430 1430 1429 1428 1428 1427 1426 1425 1425 1423 1421 1419 1417 1416 1414 1413 1411 1410 1408 1407 1406 1404 1403 1401 1399 1397
1429 1431 1432 1433 1434 1435 1437 1438 1438 1439 1440 1441 1442 1442 1443 1443 1443 1443 1443 1443 1442 1442 1442 1442 1441 1441 1441 1441 1440 1439 1439 1438 1437 1436 1435 1434 1433 1432 1431 1430 1429 1429 1429 1429 1428 1428 1427 1426 1426 1425 1424 1424 1422 1420 1418 1416 1414 1413 1412 1410 1408 1407 1406 1404 1403 1402 1400 1398 1397
1427 1428 1429 1431 1432 1433 1434 1435 1436 1437 1438 1439 1440 1440 1441 1441 1441 1442 1442 1441 1441 1440 1440 1440 1440 1439 1439 1439 1438 1438 1437 1437 1436 1434 1433 1432 1431 1430 1429 1428 1428 1427 1427 1427 1427 1426 1425 1425 1424 1423 1423 1423 1421 1419 1417 1415 1413 1412 1411 1409 1407 1406 1404 1403 1402 1401 1399 1398 1396
1425 1426 1427 1428 1430 1431 1432 1433 1434 1435 1436 1437 1438 1438 1439 1440 1440 1440 1440 1439 1439 1439 1438 1438 1438 1438 1438 1437 1437 1436 1436 1435 1434 1433 1432 1431 1430 1429 1428 1427 1426 1426 1425 1425 1425 1424 1424 1423 1423 1422 1422 1421 1420 1418 1417 1414 1413 1411 1409 1408 1406 1404 1403 1402 1401 1399 1398 1397 1395
Wind_Speed
24 23 22 21 20 20 19 18 17 17 17 16 16 16 17 17 18 18 18 18 18 18 18 18 18 18 18 18 18 18 18 18 18 19 19 19 20 20 20 21 21 22 22 23 23 24 24 24 24 24 25 25 25 25 26 26 26 27 27 28 28 29 29 30 30 30 30 30 31
24 23 22 21 21 20 19 18 18 17 17 16 16 16 17 17 18 18 18 18 18 18 18 18 18 18 18 18 18 18 18 18 18 19 19 19 19 20 20 21 21 22 22 23 23 24 24 24 24 25 25 25 25 25 25 25 25 26 27 27 28 29 30 30 31 31 31 31 32
24 23 22 22 21 20 19 18 18 17 17 16 16 16 17 17 18 18 18 18 18 18 18 18 18 18 18 18 18 18 18 18 18 19 19 19 19 20 20 21 21 22 22 23 23 24 24 24 24 25 25 25 24 24 24 24 24 24 26 26 27 28 29 31 31 31 32 32 32
24 23 23 22 21 20 19 18 18 17 17 16 16 16 17 17 17 18 18 17 17 17 17 18 18 18 17 17 17 17 18 18 18 19 19 19 19 20 20 21 21 22 22 22 23 23 23 23 24 24 24 24 24 24 24 24 24 24 25 26 27 28 29 30 31 31 32 32 32
25 24 23 22 21 20 19 18 18 17 17 17 16 17 17 17 17 18 18 17 17 17 17 17 17 17 17 17 17 17 17 18 18 18 19 19 19 20 20 20 21 21 22 22 22 23 23 23 23 23 23 23 24 24 24 24 24 25 25 26 27 28 29 30 31 32 32 33 33
25 24 23 22 21 20 19 19 18 17 17 17 17 16 17 17 17 17 17 17 17 17 17 17 17 17 17 17 17 17 17 17 18 18 19 19 19 20 20 20 21 21 21 22 22 22 22 23 23 23 23 23 23 23 23 24 24 25 26 27 27 28 29 30 31 32 32 33 33
25 24 23 22 21 20 20 19 18 18 17 17 17 16 16 17 17 17 17 17 17 16 16 17 17 17 17 17 17 17 17 17 18 18 18 19 19 19 20 20 21 21 21 21 22 22 22 22 22 23 23 23 23 23 23 24 24 26 27 27 28 28 29 30 31 32 32 33 33
25 24 23 22 21 21 20 19 19 18 17 17 16 16 16 17 17 17 17 17 17 16 16 17 17 17 17 17 17 17 17 18 18 18 18 19 19 19 20 20 20 21 21 21 21 22 22 22 22 22 23 23 23 23 23 24 25 26 27 28 28 28 29 30 30 31 32 32 32
26 24 23 22 22 21 20 20 19 18 18 17 16 16 16 17 17 17 17 17 16 16 16 16 16 17 17 17 17 17 17 18 18 18 18 19 19 19 20 20 20 21 21 21 21 21 22 22 22 22 22 22 23 23 23 24 25 26 27 27 28 28 28 28 29 30 31 32 33
26 25 23 22 22 21 20 20 19 19 18 17 16 16 16 16 17 17 17 17 16 16 16 16 16 16 17 17 17 17 17 18 18 18 19 19 19 19 20 20 20 21 21 21 21 21 22 22 22 22 22 22 22 23 23 24 25 26 27 27 27 27 27 27 27 28 30 31 32
26 24 23 23 22 21 21 20 20 19 18 17 16 16 16 16 16 16 16 17 16 16 16 16 16 16 16 17 17 17 17 18 18 18 19 19 19 19 19 20 20 21 21 21 21 21 21 22 22 22 22 22 22 23 23 24 25 26 27 27 27 27 27 26 26 27 28 30 32
26 25 24 23 22 22 22 21 20 19 18 17 16 16 16 16 16 16 17 17 16 16 15 15 16 16 16 16 17 17 17 18 18 18 19 19 19 19 19 20 20 20 21 21 21 21 21 21 22 22 22 22 23 23 24 25 26 27 27 27 27 27 27 26 26 27 28 30 32
26 25 24 24 23 23 22 21 20 19 18 17 16 16 16 16 16 16 17 17 16 16 15 15 15 16 16 16 17 17 17 18 18 19 19 19 19 19 19 19 20 20 21 21 21 21 21 21 21 22 22 23 23 24 25 26 27 28 28 28 27 27 27 27 27 29 30 33 35
27 26 25 24 24 23 22 21 20 19 18 17 16 16 16 16 16 16 17 16 16 16 15 15 15 15 16 16 17 17 18 18 18 19 19 19 19 19 19 20 20 20 20 21 21 21 21 21 21 22 22 24 24 25 26 27 28 28 29 29 28 28 28 29 30 32 35 37 39
27 27 26 25 24 24 23 21 20 19 18 17 16 16 16 16 16 16 17 16 16 16 15 15 15 15 15 16 17 17 18 18 18 19 19 19 19 19 19 20 20 20 20 21 21 20 20 20 21 22 23 24 25 26 27 27 28 29 29 29 29 29 30 32 33 35 37 39 41
28 27 26 26 25 24 23 21 20 19 18 17 16 16 16 16 16 16 16 16 16 15 15 15 15 15 15 16 16 17 18 18 18 19 19 19 19 19 19 20 20 20 20 21 21 20 20 20 21 22 23 24 26 27 28 28 28 28 29 29 30 31 33 34 34 35 36 36 37
29 28 27 26 25 24 23 21 20 19 18 17 16 16 16 16 16 16 16 16 16 16 15 15 15 15 16 16 16 17 18 18 18 18 19 19 19 19 20 20 20 20 21 21 21 21 21 21 21 22 23 24 26 27 27 27 27 28 28 30 32 34 34 33 32 32 32 31 31
29 28 27 26 25 24 23 21 20 19 18 17 17 16 16 16 16 16 16 16 16 16 15 15 15 15 16 16 16 17 18 18 18 18 18 19 19 19 20 20 20 21 21 21 21 21 21 21 22 22 23 25 26 27 27 26 27 28 30 33 35 35 33 30 29 28 28 27 27
30 28 27 26 25 24 22 21 20 19 18 17 17 17 16 16 17 16 16 16 16 16 16 15 15 15 16 16 17 17 17 18 18 18 18 18 19 19 20 20 21 21 21 21 21 21 21 22 22 23 24 25 26 26 26 26 27 30 33 35 35 32 29 27 27 27 27 26 25
30 29 28 26 25 23 22 22 21 20 19 18 17 17 17 16 17 17 16 16 16 16 16 16 15 15 16 16 17 17 17 17 18 18 18 18 18 19 20 20 21 21 21 21 21 21 22 22 23 23 25 26 26 26 26 28 30 33 36 36 33 29 26 27 27 27 27 26 24
30 29 27 26 25 24 23 22 21 20 19 18 17 17 17 17 17 16 16 16 16 16 16 16 16 16 16 17 17 17 17 17 17 18 18 18 18 19 20 20 21 21 21 21 21 21 22 22 23 24 25 26 27 27 28 30 33 36 36 33 28 26 26 27 28 28 27 26 24
30 29 27 26 25 24 23 23 22 21 20 19 18 17 17 17 17 16 16 16 16 16 16 16 16 16 16 17 17 17 17 17 17 17 18 18 18 19 19 20 21 21 21 21 21 21 22 22 23 24 26 27 27 28 30 33 36 37 34 29 26 26 27 28 28 27 27 26 25
30 28 27 26 25 25 24 24 23 21 20 19 18 17 17 17 17 17 17 17 16 16 16 15 16 16 17 17 17 17 17 17 17 17 17 18 18 19 19 20 21 21 21 21 21 21 22 23 24 25 26 27 28 30 32 35 37 34 29 25 26 27 27 27 27 27 26 26 25
30 29 27 27 26 26 25 25 23 22 20 19 18 17 17 17 17 17 17 17 17 16 16 16 16 16 17 17 17 18 18 18 17 17 17 17 18 19 20 20 20 21 20 20 20 21 22 23 24 25 26 28 29 31 33 35 34 28 24 24 26 27 27 27 27 27 27 26 25
30 29 28 27 27 27 26 25 24 22 20 19 18 18 17 17 17 17 17 17 16 16 16 16 16 16 17 17 17 18 18 18 18 18 18 18 18 19 19 20 20 20 19 19 19 20 21 22 23 24 25 26 28 31 33 33 28 24 23 25 27 27 28 28 28 28 28 27 25
31 30 29 28 28 28 27 26 24 22 20 19 18 18 18 17 17 17 17 17 16 16 16 16 16 16 17 17 17 17 17 17 18 18 18 19 19 19 20 20 19 19 18 18 18 19 20 20 21 22 23 25 27 30 32 30 25 23 24 27 28 28 28 29 29 29 29 28 26
32 31 30 29 29 28 27 26 24 22 20 19 19 18 18 17 17 17 17 17 16 16 16 16 16 17 17 17 17 17 17 17 17 18 19 20 20 20 20 20 19 18 17 17 17 18 19 20 21 21 21 23 27 30 31 27 24 24 25 27 28 29 29 29 30 30 30 29 27
33 31 31 30 30 29 28 26 24 23 21 20 19 18 18 18 18 18 17 17 17 16 16 16 16 17 17 17 17 17 17 17 17 18 19 20 20 21 20 20 18 17 16 16 17 17 18 19 20 20 21 22 26 29 29 26 24 24 26 27 28 29 29 29 30 31 30 30 28
33 32 31 31 30 29 28 26 25 23 21 20 19 19 19 18 18 18 17 17 17 16 16 16 17 17 17 17 17 17 17 17 18 18 19 20 20 20 20 19 18 16 15 15 16 17 18 19 19 19 20 22 26 28 27 26 25 25 26 27 28 29 29 29 30 31 31 30 28
34 33 32 32 31 30 28 26 25 23 21 20 20 19 19 19 18 18 17 17 17 17 17 17 17 17 17 16 17 17 17 17 18 18 19 20 20 20 20 19 17 15 14 14 15 16 17 18 18 18 20 22 25 26 26 25 24 24 26 27 28 28 29 29 30 31 31 30 28
34 34 33 32 31 30 28 26 24 23 21 21 21 20 20 19 18 17 17 17 17 17 17 17 17 17 16 16 16 17 17 17 18 18 19 20 20 20 19 18 16 15 13 13 14 15 16 17 17 17 19 22 24 25 26 25 24 24 25 27 28 28 28 29 30 31 32 31 29
35 34 34 33 32 30 28 26 25 23 22 22 21 21 20 19 18 17 17 17 17 18 18 17 17 17 16 16 16 17 17 17 18 18 19 19 20 19 18 17 15 14 13 13 14 15 16 16 16 17 18 21 24 25 26 25 24 24 25 26 27 28 28 28 29 31 32 32 30
36 35 34 33 32 30 29 27 25 24 23 23 22 21 20 19 18 17 17 17 18 18 18 17 17 17 16 16 16 17 17 17 18 18 19 19 19 19 18 17 15 13 13 13 13 14 15 16 16 16 17 20 23 25 25 24 23 23 25 26 27 28 28 27 28 30 32 33 31
36 36 35 34 32 31 29 28 26 25 24 23 23 22 20 19 18 17 17 18 18 18 18 18 17 16 16 16 16 17 17 17 17 18 18 18 19 18 18 16 15 13 12 12 13 14 14 15 15 15 16 20 23 25 24 22 22 23 25 26 27 27 27 26 27 29 32 33 31
37 36 35 34 32 31 29 28 27 25 25 24 23 22 20 19 18 17 17 18 19 19 19 18 17 16 16 16 16 16 17 17 17 17 18 18 18 18 18 16 15 13 12 12 13 13 14 14 14 14 16 19 23 24 23 21 22 23 25 27 28 27 26 25 26 29 31 32 31
37 36 35 34 33 31 30 29 27 26 25 24 23 22 20 18 17 17 17 18 19 20 19 18 17 16 16 16 16 16 17 17 17 17 18 18 18 18 18 17 15 13 12 12 12 13 13 14 13 13 15 19 22 23 21 21 22 24 26 27 27 27 25 25 26 28 30 31 30
37 36 35 34 33 31 30 29 28 27 25 24 23 21 19 18 17 17 18 19 20 20 19 18 17 16 16 16 16 16 16 17 17 17 17 18 18 18 18 17 16 14 13 12 12 12 12 13 12 12 14 19 22 22 21 21 22 24 26 27 27 26 24 24 25 27 29 30 29
37 36 35 34 33 32 30 29 28 27 25 24 22 20 19 18 18 18 19 20 20 20 19 18 17 17 16 16 16 16 16 16 16 17 17 17 18 18 18 18 16 15 13 12 12 12 12 12 11 11 13 19 22 22 21 22 24 25 26 27 27 25 24 23 24 26 27 28 28
37 36 35 34 33 32 31 29 28 27 25 23 22 20 19 18 18 19 19 20 20 20 19 18 17 17 16 16 16 16 16 16 16 16 17 17 17 18 18 18 17 16 14 13 12 12 11 11 11 10 12 17 21 22 22 23 25 26 27 27 26 25 24 23 23 24 25 26 27
37 36 35 34 33 32 31 30 28 26 25 23 21 20 19 18 18 19 20 21 21 20 19 18 17 17 16 16 16 16 16 15 16 16 16 17 17 17 18 18 18 17 16 14 13 12 12 11 11 10 10 14 19 22 23 25 26 26 27 27 26 26 25 24 23 23 24 25 26
37 36 36 35 33 32 31 30 28 26 24 23 21 20 19 18 19 20 21 22 22 21 20 19 18 17 17 16 16 16 16 15 15 15 16 16 17 17 17 18 18 18 17 15 14 13 12 12 12 10 9 11 17 21 23 25 25 26 26 26 26 26 25 24 23 22 23 23 25
Wind_Direction
255 256 257 258 260 262 264 267 270 274 279 284 290 294 298 301 303 304 305 306 307 309 309 309 310 311 311 312 312 312 312 312 313 313 313 314 315 316 316 315 314 313 312 311 310 309 307 306 304 303 301 300 299 298 297 295 293 291 289 288 287 287 287 288 289 290 291 292 293
254 255 256 257 259 261 263 266 270 274 279 284 289 293 297 300 302 303 304 306 307 308 308 309 310 311 312 312 312 312 312 312 313 313 313 314 315 315 315 315 314 313 312 311 310 309 307 306 304 302 301 301 301 300 300 299 297 295 292 290 288 287 287 287 288 290 291 291 292
254 254 255 256 258 261 263 266 270 274 278 283 288 292 295 298 300 302 303 305 306 307 308 309 310 310 311 311 312 312 312 312 312 313 313 314 315 315 315 315 314 313 312 311 310 309 307 306 304 302 301 302 302 303 303 303 301 299 296 293 291 289 288 287 289 290 291 291 291
253 253 254 256 258 261 263 266 269 273 277 282 286 291 294 297 299 301 303 304 306 307 308 308 309 310 311 311 311 311 312 312 313 313 313 314 315 315 315 315 314 313 312 311 310 309 307 306 304 302 302 303 304 305 306 306 305 302 299 297 295 292 290 290 291 291 291 291 291
253 253 255 256 258 260 262 265 268 271 276 280 285 289 293 296 298 300 302 304 306 306 307 307 308 309 310 310 311 311 312 313 313 313 314 314 315 315 315 314 313 312 311 311 310 308 307 306 304 304 304 305 306 307 307 308 306 304 302 300 298 296 294 293 293 293 292 292 292
252 253 254 256 257 259 261 264 267 270 274 279 284 289 292 295 297 299 301 303 305 305 306 306 307 308 309 310 310 311 312 313 313 313 314 314 315 314 314 313 312 312 311 310 309 308 308 307 306 306 307 307 308 308 309 308 307 305 303 301 300 299 298 296 297 296 296 295 295
252 252 253 254 256 258 260 262 265 269 273 278 283 288 291 294 296 298 300 302 303 304 304 305 305 306 307 309 310 311 312 313 313 313 313 313 313 313 313 312 312 311 310 310 309 309 309 309 309 310 310 310 310 310 310 309 307 305 303 302 302 302 301 300 301 300 299 299 298
250 251 252 253 255 256 259 261 264 267 272 277 282 286 290 292 294 296 298 300 301 302 302 303 304 305 307 308 310 311 312 312 312 313 312 312 312 312 312 311 311 311 310 310 310 310 310 311 311 312 312 312 311 311 311 310 307 305 303 303 304 304 305 304 304 304 303 302 301
249 250 251 252 254 255 257 260 262 266 271 276 281 284 287 290 292 295 297 298 299 300 300 302 303 305 306 308 310 311 311 312 312 312 312 311 311 311 311 310 310 311 311 311 311 312 312 312 313 313 313 312 311 311 311 310 308 305 304 304 306 307 308 308 307 307 306 305 304
249 250 250 251 252 254 256 258 261 265 270 275 279 283 286 289 291 294 295 296 296 297 299 300 302 304 306 308 310 310 311 311 311 311 310 310 310 310 310 310 310 311 312 312 312 313 313 313 313 313 313 313 312 312 312 311 309 307 306 307 308 309 310 310 309 309 308 306 305
249 250 250 250 251 253 254 257 260 264 269 273 278 281 285 288 290 292 293 293 294 296 298 300 301 304 306 308 309 310 310 310 309 309 309 309 308 308 308 309 310 311 312 313 313 313 313 313 313 313 314 314 313 313 312 311 309 308 308 308 309 310 310 310 309 309 307 306 305
248 248 248 249 250 251 253 256 259 263 267 272 276 280 283 286 288 289 290 291 293 295 297 299 301 304 306 308 309 309 308 308 308 307 307 307 307 307 307 308 309 310 311 312 313 313 313 313 313 314 314 314 314 313 312 311 309 309 308 308 309 308 308 307 307 306 305 303 302
247 246 246 247 248 250 252 255 259 262 266 271 275 279 282 285 286 287 288 289 292 294 296 298 301 304 306 307 307 307 306 306 305 305 305 306 306 306 306 307 308 309 311 312 312 312 312 312 313 313 312 312 313 312 311 310 309 308 308 308 307 306 305 305 305 304 303 301 300
245 245 245 246 247 249 251 254 258 261 265 270 274 278 280 282 283 284 286 288 290 293 295 297 300 303 305 306 306 305 305 304 304 304 304 305 305 305 305 306 307 308 309 310 311 311 311 311 311 311 311 311 311 311 311 310 309 308 307 306 306 305 304 304 305 305 305 303 301
243 244 244 245 246 248 251 254 257 260 264 268 272 275 278 280 281 282 284 286 289 291 294 297 299 302 303 304 304 304 303 302 302 303 303 304 304 303 303 304 305 307 308 308 309 309 309 310 310 310 310 310 310 311 311 310 309 308 307 306 305 305 305 305 307 308 308 307 306
242 243 244 244 246 248 250 253 255 259 262 266 270 273 276 278 279 281 282 285 287 290 293 296 299 301 302 302 302 301 301 301 301 302 302 303 302 302 302 303 304 305 306 307 307 308 308 309 309 309 310 310 311 312 312 311 310 309 308 308 307 307 308 309 310 311 312 312 313
242 243 243 244 245 247 249 252 254 257 260 264 268 271 274 276 277 279 281 283 286 288 292 295 298 300 300 300 300 299 299 299 300 301 301 302 302 302 302 302 303 304 304 305 305 306 307 308 309 309 310 311 312 313 313 312 311 311 311 312 312 313 313 314 314 315 317 319 321
242 243 243 244 245 247 249 251 253 256 259 263 266 269 272 274 276 277 279 281 284 287 291 294 297 299 299 299 298 297 297 298 299 300 301 301 301 301 301 302 302 302 302 303 303 305 306 307 308 310 311 312 313 314 314 313 313 315 317 318 318 319 319 320 321 323 326 329 329
242 243 243 244 245 246 248 249 251 254 258 261 265 267 270 272 274 276 277 280 283 286 290 293 295 297 298 298 297 297 297 297 298 299 300 300 300 301 301 301 301 300 301 301 302 304 305 307 308 310 311 313 314 314 315 315 317 320 321 322 322 323 324 326 328 330 333 335 334
242 242 243 244 244 245 247 248 250 253 256 259 263 266 268 270 272 274 276 278 281 284 287 291 294 296 296 296 297 296 296 296 297 298 299 300 300 300 300 300 299 299 300 300 301 303 305 306 308 309 311 313 314 316 317 320 322 323 323 323 324 326 328 330 333 335 336 337 336
242 242 243 244 244 244 246 247 249 251 255 258 261 264 267 269 270 272 274 277 278 281 285 289 293 294 295 295 295 295 295 295 296 297 299 300 300 300 300 299 299 299 300 300 301 302 303 305 307 308 310 313 316 319 322 324 325 324 324 325 327 330 333 334 336 336 337 336 335
241 242 243 243 243 243 244 246 247 250 253 256 259 262 265 266 268 271 273 274 276 279 283 287 291 293 294 294 294 295 295 295 296 297 299 300 300 300 300 299 299 299 299 299 300 301 302 304 306 309 312 315 319 323 326 327 324 323 323 327 331 334 336 336 337 336 335 334 333
241 242 242 241 241 242 243 244 246 248 251 255 258 260 263 264 267 269 270 272 275 278 282 286 288 290 292 293 293 294 295 295 296 297 299 299 300 300 299 299 298 298 298 299 300 301 302 305 307 311 316 320 323 326 326 325 321 320 324 331 335 336 336 336 336 334 332 330 329
240 241 240 240 240 240 241 243 245 247 250 254 256 258 261 263 264 266 268 271 273 277 280 283 286 288 290 291 292 293 294 296 297 298 299 299 299 299 299 299 298 299 299 300 300 301 303 305 309 314 318 321 323 324 322 319 317 319 327 335 337 337 335 334 333 332 330 328 326
239 239 239 238 238 239 240 242 244 247 249 252 255 257 258 260 262 264 267 269 272 275 278 281 283 286 288 289 291 292 294 296 298 299 300 300 299 299 299 300 300 300 300 300 300 301 302 305 309 314 316 318 319 319 318 315 316 323 333 337 338 336 334 333 333 332 332 330 327
237 238 237 237 237 238 240 241 244 246 248 251 253 254 256 259 261 263 265 268 270 273 276 279 281 283 286 287 289 291 293 296 298 299 300 300 300 301 301 302 303 303 302 301 301 301 302 304 307 310 313 315 318 318 316 316 321 328 334 337 337 336 335 334 334 334 333 332 329
236 236 236 236 237 237 239 241 243 244 246 248 251 253 255 258 259 261 264 266 269 271 274 276 279 281 284 286 289 291 293 295 297 298 299 300 301 302 303 305 306 305 304 302 301 301 302 303 306 310 314 318 319 318 317 318 322 327 331 336 337 338 337 336 335 334 333 332 330
235 235 235 235 236 237 238 240 241 243 245 247 249 252 254 256 257 259 262 265 267 269 271 274 277 280 282 285 288 291 293 295 296 297 298 299 301 303 305 307 308 307 306 303 302 301 302 303 307 312 318 322 321 318 316 317 319 324 330 335 338 339 338 337 335 334 333 332 329
234 234 235 235 235 236 237 238 240 242 244 246 248 251 252 253 255 257 260 263 265 267 269 272 275 277 280 284 288 291 293 295 296 297 297 299 301 303 306 308 309 308 306 303 301 301 301 304 308 314 321 324 320 316 314 315 318 323 330 336 339 339 338 337 336 335 334 332 328
233 233 234 234 235 236 237 238 239 241 242 244 246 248 250 252 253 256 258 261 264 266 268 271 273 275 279 283 286 289 291 294 295 297 298 299 302 304 306 308 309 309 306 303 301 301 302 304 309 316 322 324 320 315 314 314 317 324 331 337 339 339 338 337 336 335 335 333 329
232 232 233 234 235 235 236 237 238 239 241 243 245 246 248 250 252 254 257 260 262 264 266 269 271 275 279 283 286 289 291 293 295 297 298 300 302 305 307 309 310 309 306 303 301 301 302 304 309 317 323 325 320 315 313 314 317 325 333 338 339 339 337 336 336 336 336 334 331
231 232 233 233 234 235 236 236 237 238 239 241 243 245 247 249 251 253 255 258 260 262 264 267 270 274 278 282 285 288 291 293 295 297 298 300 302 305 308 310 311 309 306 302 301 300 302 304 309 317 324 325 318 314 312 313 318 327 334 338 339 338 336 336 336 336 337 336 333
230 231 232 233 234 234 235 235 235 236 238 240 242 244 246 248 249 251 253 256 258 260 263 265 269 273 277 280 283 286 289 292 295 297 299 300 302 305 308 310 312 310 306 302 300 300 301 303 308 318 325 324 317 313 312 313 320 329 335 337 337 336 335 335 336 337 338 337 336
229 230 231 232 233 233 234 234 234 235 237 240 242 244 245 246 247 249 251 254 257 260 262 265 268 272 275 278 281 285 288 292 295 298 299 301 302 305 308 310 312 310 305 301 299 300 301 302 307 317 324 322 316 312 311 314 322 331 335 336 335 334 334 334 336 338 339 338 338
228 229 231 232 232 233 233 233 234 235 237 239 241 243 244 245 246 248 250 253 256 258 261 264 267 270 274 277 281 285 289 292 296 298 299 300 302 305 308 310 311 309 304 299 298 298 299 300 305 314 322 321 316 312 312 316 325 332 335 335 333 332 332 334 337 339 339 339 339
227 229 230 231 232 232 232 232 233 234 236 239 241 242 243 244 245 247 249 252 254 257 260 263 266 269 273 276 280 284 289 292 296 298 299 300 302 305 307 310 310 308 302 297 295 295 296 298 302 312 322 322 317 313 313 320 328 333 334 333 331 330 331 335 338 339 340 340 340
227 228 230 231 231 231 231 232 232 234 236 238 240 242 243 243 244 246 248 251 254 257 260 263 265 268 272 275 279 283 287 292 295 297 299 300 302 304 307 309 310 307 302 295 293 292 293 295 299 310 321 323 317 315 317 324 331 333 333 331 329 329 331 335 337 338 339 340 341
226 228 229 230 231 231 231 231 232 234 236 238 240 241 242 242 243 245 247 251 254 257 260 262 265 267 271 274 277 282 287 291 294 297 299 301 302 304 305 307 308 307 302 295 291 290 291 293 295 306 319 322 318 318 322 328 332 332 331 328 327 328 330 333 336 337 338 340 341
226 227 228 229 230 230 230 231 232 234 236 238 239 240 241 241 243 245 248 251 254 256 259 261 263 266 269 272 276 280 285 290 293 296 299 301 302 304 305 306 307 306 302 296 290 288 288 289 290 299 315 322 320 322 326 331 331 330 328 327 326 327 329 331 333 335 337 339 341
225 226 228 229 229 230 230 231 232 233 235 237 238 239 239 241 243 246 249 251 253 255 258 260 262 264 266 270 274 279 284 288 292 295 298 301 302 303 304 305 305 304 302 296 290 287 285 285 284 290 308 322 323 326 329 330 329 328 327 326 327 327 328 329 331 333 336 339 341
224 226 227 228 229 229 229 230 231 232 234 235 236 238 239 240 243 246 248 251 253 255 257 259 261 263 265 269 273 278 283 287 291 295 297 300 302 303 303 303 303 302 300 296 290 285 282 281 279 281 295 317 324 327 328 328 327 327 327 327 327 326 326 326 328 332 336 339 341